Regional Weather Roundup
Issued by NWS New Orleans/Baton Rouge, LA

Home | Current Version | Previous Version | Text Only | Print | Product List | Glossary On
Versions: 1 2 3 4 5 6 7 8 9 10 11 12 13 14 15 16 17 18 19 20 21 22 23 24 25 26 27 28 29 30 31 32 33 34 35 36 37 38 39 40 41 42 43 44 45 46 47 48 49 50
587
ASUS44 KLIX 310005
RWRLIX
NEW ORLEANS REGIONAL WEATHER ROUNDUP
NATIONAL WEATHER SERVICE NEW ORLEANS LA
600 PM CST FRI JAN 30 2015

NOTE: "FAIR" INDICATES FEW OR NO CLOUDS BELOW 12,000 FEET WITH NO
      SIGNIFICANT WEATHER AND/OR OBSTRUCTIONS TO VISIBILITY.
      SKY/WX - SKY CONDITION AND SIGNIFICANT WEATHER.
      TMP - AIR TEMPERATURE.     DP    - DEWPOINT TEMPERATURE.
      RH  - RELATIVE HUMIDITY.   PRES  - PRESSURE.
      HI  - HEAT INDEX.          WCI   - WIND CHILL INDEX.

*  THESE STATIONS ARE NOT NWS OR FAA STATIONS AND ARE NOT UNDER
   NWS QUALITY CONTROL.

LAZ038-040-048-061>063-065>067-069-310100-
SOUTHEAST LOUISIANA

CITY           SKY/WX    TMP DP  RH WIND       PRES   REMARKS
N.O. AUDUBON   NOT AVBL
N.O. INTL ARPT MOCLDY    54  33  45 N3        30.32S
6HR MIN TEMP:  53; 6HR MAX TEMP:  58;

N.O. LAKEFRONT MOCLDY    55  47  74 NW6       30.33R
6HR MIN TEMP:  55; 6HR MAX TEMP:  60;

N.O. DOWNTOWN* NOT AVBL
SLIDELL        PTCLDY    52  37  56 CALM      30.32R
6HR MIN TEMP:  52; 6HR MAX TEMP:  62;

BATON ROUGE    MOCLDY    55  30  38 CALM      30.34R
6HR MIN TEMP:  54; 6HR MAX TEMP:  63;

BOOTHVILLE     PTCLDY    52  40  63 N5        30.32S
6HR MIN TEMP:  52; 6HR MAX TEMP:  54;

BELLE CHASSE   MOCLDY    55  32  41 CALM      30.32R
6HR MIN TEMP:  54; 6HR MAX TEMP:  60;

BOGALUSA*        N/A     50  37  59 N5        30.35R
6HR MIN TEMP:  50; 6HR MAX TEMP:  62;

GALLIANO*      PTCLDY    52  40  64 NW5       30.32S
6HR MIN TEMP:  52; 6HR MAX TEMP:  62;

NEW ROADS*       N/A     53  37  55 NW7       30.35R
6HR MIN TEMP:  53; 6HR MAX TEMP:  60;

GONZALES*        N/A     55  33  43 CALM      30.33R
6HR MIN TEMP:  54; 6HR MAX TEMP:  63;

HAMMOND*       MOCLDY    52  34  50 CALM      30.35R
HOUMA*         CLEAR     54  34  47 NE6       30.32S
PORT FOURCHON* PTCLDY    57  39  51 NE12      30.34S

$$

MSZ070-080>082-310100-
SOUTHERN MISSISSIPPI

CITY           SKY/WX    TMP DP  RH WIND       PRES   REMARKS
MCCOMB         MOCLDY    53  31  42 N5        30.35R
6HR MIN TEMP:  52; 6HR MAX TEMP:  60;

GULFPORT       PTCLDY    53  34  48 N6        30.31R
6HR MIN TEMP:  53; 6HR MAX TEMP:  63;

BILOXI         PTCLDY    53  37  55 N5        30.31R
6HR MIN TEMP:  53; 6HR MAX TEMP:  62;

PASCAGOULA     PTCLDY    51  35  54 N5        30.32R
6HR MIN TEMP:  50; 6HR MAX TEMP:  63;

STENNIS ARPT*  CLEAR     46  36  66 CALM      30.32R

$$

COASTAL OBSERVATIONS
LAKE AND NEARSHORE STATIONS

STATION/POSITION TIME  TEMP    WIND        PRES    WAVE
                       AIR SEA DIR/SP/G            HT/PER
                 (UTC) (F)     (DEG/KT/KT) (MB)    (FT/S)
PASCAGOULA       2323   59     360/  5/  7 1025.4
WAVELAND YACHT   2323   57     360/  9/ 10 1025.6
GRAND ISLE       2323   57 62   40/  8/ 13 1026.6
SOUTHWEST PASS   2323   53 47   30/ 14/ 15 1026.3
NEW CANAL        2323   55 55  310/  2/  3 1026.9
SHELL BEACH      2323   56 58   30/  5/  6 1026.2

OFFSHORE STATIONS

STATION/POSITION TIME  TEMP    WIND        PRES    WAVE
                       AIR SEA DIR/SP/G            HT/PER
                 (UTC) (F)     (DEG/KT/KT) (MB)    (FT/S)

$$




USA.gov is the U.S. government's official web portal to all federal, state and local government web resources and services.